TimeEDT,TemperatureF,Dew PointF,Humidity,Sea Level PressureIn,VisibilityMPH,Wind Direction,Wind SpeedMPH,Gust SpeedMPH,PrecipitationIn,Events,Conditions,WindDirDegrees,DateUTC
12:56 AM,50.0,45.0,83,30.29,10.0,Calm,Calm,-,N/A,,Partly Cloudy,0,2014-03-28 04:56:00
1:56 AM,48.9,45.0,86,30.27,10.0,Calm,Calm,-,N/A,,Partly Cloudy,0,2014-03-28 05:56:00
2:56 AM,50.0,45.0,83,30.26,10.0,Calm,Calm,-,N/A,,Scattered Clouds,0,2014-03-28 06:56:00
3:56 AM,50.0,46.0,86,30.24,10.0,Calm,Calm,-,N/A,,Partly Cloudy,0,2014-03-28 07:56:00
4:56 AM,48.9,45.0,86,30.22,10.0,Calm,Calm,-,N/A,,Clear,0,2014-03-28 08:56:00
5:56 AM,50.0,46.0,86,30.21,9.0,Calm,Calm,-,N/A,,Scattered Clouds,0,2014-03-28 09:56:00
6:56 AM,50.0,46.9,89,30.21,9.0,Calm,Calm,-,N/A,,Scattered Clouds,0,2014-03-28 10:56:00
7:56 AM,54.0,51.1,90,30.22,7.0,Calm,Calm,-,N/A,,Mostly Cloudy,0,2014-03-28 11:56:00
8:56 AM,61.0,55.9,83,30.23,8.0,Calm,Calm,-,0.00,Rain,Light Rain,0,2014-03-28 12:56:00
9:56 AM,64.9,61.0,87,30.24,10.0,South,6.9,-,0.00,,Mostly Cloudy,170,2014-03-28 13:56:00
10:56 AM,70.0,62.1,76,30.24,10.0,South,11.5,-,N/A,,Mostly Cloudy,170,2014-03-28 14:56:00
11:56 AM,73.9,61.0,64,30.22,10.0,SSE,15.0,18.4,N/A,,Mostly Cloudy,160,2014-03-28 15:56:00
12:56 PM,73.0,59.0,61,30.20,10.0,South,12.7,-,N/A,,Mostly Cloudy,170,2014-03-28 16:56:00
1:27 PM,71.6,62.6,73,30.20,10.0,SSE,10.4,-,0.00,,Mostly Cloudy,160,2014-03-28 17:27:00
1:56 PM,73.0,61.0,66,30.18,10.0,South,12.7,-,0.00,,Mostly Cloudy,180,2014-03-28 17:56:00
2:02 PM,73.4,60.8,65,30.18,10.0,SSE,11.5,-,N/A,,Mostly Cloudy,160,2014-03-28 18:02:00
2:56 PM,72.0,61.0,68,30.15,10.0,South,11.5,-,N/A,,Overcast,170,2014-03-28 18:56:00
3:56 PM,73.0,59.0,61,30.15,10.0,South,12.7,-,N/A,,Overcast,180,2014-03-28 19:56:00
4:56 PM,66.9,62.1,84,30.14,10.0,SSE,9.2,-,0.00,,Overcast,160,2014-03-28 20:56:00
5:28 PM,66.2,62.6,88,30.13,10.0,SSE,9.2,-,N/A,,Overcast,160,2014-03-28 21:28:00
5:47 PM,66.2,62.6,88,30.13,10.0,South,8.1,-,N/A,,Overcast,170,2014-03-28 21:47:00
5:56 PM,66.9,61.0,81,30.14,10.0,South,6.9,-,N/A,,Overcast,180,2014-03-28 21:56:00
6:56 PM,66.0,61.0,84,30.13,10.0,SSE,8.1,-,N/A,,Overcast,150,2014-03-28 22:56:00
7:46 PM,64.4,60.8,88,30.14,5.0,South,6.9,-,0.01,Rain,Light Rain,170,2014-03-28 23:46:00
7:56 PM,64.0,61.0,90,30.14,6.0,South,6.9,-,0.01,Rain,Light Rain,180,2014-03-28 23:56:00
8:24 PM,64.4,60.8,88,30.14,4.0,South,6.9,-,0.04,Rain,Light Rain,180,2014-03-29 00:24:00
8:56 PM,64.0,62.1,93,30.13,10.0,SE,6.9,-,0.05,,Overcast,130,2014-03-29 00:56:00
9:56 PM,64.0,62.1,93,30.13,9.0,ESE,3.5,-,0.01,,Overcast,110,2014-03-29 01:56:00
10:56 PM,64.0,61.0,90,30.11,9.0,East,4.6,-,0.00,Rain,Light Rain,100,2014-03-29 02:56:00
11:56 PM,64.0,61.0,90,30.09,6.0,SSE,11.5,-,0.01,Rain,Rain,160,2014-03-29 03:56:00